Weather History for Philip, SD

Change the Weather History Date:

Thursday, June 5, 2014

  Actual Average Record
Temperature  
Mean Temperature 66 °F 64 °F  
Max Temperature 79 °F 77 °F 100 °F (1969)
Min Temperature 52 °F 51 °F 39 °F (2002)
Degree Days  
Heating Degree Days 0 3  
Month to date heating degree days 12 19  
Since 1 June heating degree days 12 19  
Since 1 July heating degree days 7479 7153  
Cooling Degree Days 1 2  
Month to date cooling degree days 1 10  
Year to date cooling degree days 41 37  
Since 1 June cooling degree days 1 10  
Growing Degree Days 16 (Base 50)    
Moisture  
Dew Point 52 °F    
Average Humidity 64    
Maximum Humidity 93    
Minimum Humidity 35    
Precipitation  
Precipitation 0.00 in 0.10 in 3.78 in (1999)
Month to date precipitation 0.82 0.53  
Year to date precipitation 5.64 7.45  
Sea Level Pressure  
Sea Level Pressure 29.86 in    
Wind  
Wind Speed 7 mph (West)    
Max Wind Speed 15 mph    
Max Gust Speed 23 mph    
Visibility 10 miles    
Events      
T = Trace of Precipitation, MM = Missing Value Source: NWS Daily Summary

Daily Weather History Graph

Daily Weather History Graph

Search for Another Location

Airport:

Trip Planner

Search our weather history database for the weather conditions in past years. The results will help you decide how hot, cold, wet, or windy it might be!

Date:

Astronomy

Jun. 05, 2014 Rise Set
Actual Time 5:04 AM MDT 8:25 PM MDT
Civil Twilight 4:28 AM MDT 9:01 PM MDT
Nautical Twilight 3:42 AM MDT 9:48 PM MDT
Astronomical Twilight 2:44 AM MDT 10:46 PM MDT
Moon 12:34 PM MDT (6/5) 12:43 AM MDT (6/5)
Length of Visible Light 16h 32m
Length of Day
15h 21m
Waxing Crescent, 49% of the Moon is Illuminated
Jun 5
Waxing Crescent
Jun 5
First Quarter
Jun 12
Full
Jun 19
Last Quarter
Jun 27
New

Hourly Weather History & Observations

Time (MDT) Temp. Dew Point Humidity Pressure Visibility Wind Dir Wind Speed Gust Speed Precip Events Conditions
12:55 AM 57.9 °F 55.0 °F 90% 29.83 in 10.0 mi West 12.7 mph - N/A   Clear
1:55 AM 55.9 °F 54.0 °F 93% 29.82 in 10.0 mi West 8.1 mph - N/A   Clear
2:55 AM 55.0 °F 53.1 °F 93% 29.84 in 10.0 mi West 6.9 mph - N/A   Clear
3:55 AM 54.0 °F 52.0 °F 93% 29.83 in 10.0 mi West 9.2 mph - N/A   Clear
4:55 AM 53.1 °F 51.1 °F 93% 29.83 in 10.0 mi West 8.1 mph - N/A   Partly Cloudy
5:55 AM 53.1 °F 51.1 °F 93% 29.85 in 10.0 mi WSW 5.8 mph - N/A   Clear
6:55 AM 57.9 °F 53.1 °F 84% 29.87 in 10.0 mi WSW 9.2 mph - N/A   Clear
7:55 AM 63.0 °F 55.0 °F 75% 29.88 in 10.0 mi West 9.2 mph - N/A   Clear
8:55 AM 66.9 °F 55.0 °F 66% 29.87 in 10.0 mi WNW 12.7 mph - N/A   Clear
9:55 AM 70.0 °F 54.0 °F 57% 29.88 in 10.0 mi NW 10.4 mph - N/A   Clear
10:55 AM 72.0 °F 54.0 °F 53% 29.88 in 10.0 mi NW 9.2 mph - N/A   Clear
11:55 AM 73.9 °F 55.9 °F 53% 29.87 in 10.0 mi West 6.9 mph - N/A   Clear
12:55 PM 75.0 °F 54.0 °F 48% 29.86 in 10.0 mi NW 9.2 mph - N/A   Clear
1:55 PM 75.9 °F 52.0 °F 43% 29.86 in 10.0 mi WNW 9.2 mph - N/A   Clear
2:55 PM 77.0 °F 52.0 °F 42% 29.85 in 10.0 mi West 11.5 mph - N/A   Partly Cloudy
3:55 PM 78.1 °F 48.0 °F 35% 29.85 in 10.0 mi West 11.5 mph - N/A   Clear
4:55 PM 78.1 °F 48.0 °F 35% 29.85 in 10.0 mi NNW 8.1 mph - N/A   Clear
5:55 PM 79.0 °F 48.9 °F 35% 29.85 in 10.0 mi NNE 3.5 mph - N/A   Clear
6:55 PM 78.1 °F 48.0 °F 35% 29.84 in 10.0 mi Calm Calm - N/A   Clear
7:55 PM 73.0 °F 52.0 °F 48% 29.85 in 10.0 mi SE 3.5 mph - N/A   Clear
8:55 PM 64.9 °F 52.0 °F 63% 29.87 in 10.0 mi SSE 3.5 mph - N/A   Clear
9:55 PM 64.0 °F 50.0 °F 60% 29.87 in 10.0 mi South 3.5 mph - N/A   Clear
10:55 PM 57.9 °F 51.1 °F 78% 29.87 in 10.0 mi East 4.6 mph - N/A   Clear
11:55 PM 59.0 °F 50.0 °F 72% 29.87 in 10.0 mi ENE 3.5 mph - N/A   Clear